C/2005 YW ( LINEAR )

Japanese version
Home page
Total 6,336 html files since Dec. 4, 1995
Updated on September 21, 2007

---------------------------------------------------------------------

* Profile

Discovery Date December 21, 2005
Magnitude 19.9 mag
Discoverer Lincoln Laboratory Near-Earth Asteroid Research project

* Pictures

* Orbital Elements

Epoch 2006 Dec. 11.0 TT = JDT 2454080.5
T 2006 Dec. 7.84944 TT                                  MPC
q   1.9930231            (2000.0)            P               Q
z  +0.0052492      Peri.  234.63397     -0.83284034     +0.06259294
 +/-0.0000062      Node   302.21440     +0.35705469     -0.69846953
e   0.9895382      Incl.   40.54377     -0.42295263     -0.71289722

* Finding Charts

* Magnitudes Graph

        m1 = 8.0 + 5 log d + 13.0 log r

---------------------------------------------------------------------

The orbital elements are published on M.P.E.C. 2006-T62.
The charts are made with StellaNavigator Ver.2.0 for Windows (AstroArts / ASCII).
The magnitudes graphs are made with Comet for Windows.

---------------------------------------------------------------------

Copyright(C) 1995-2008 Seiichi Yoshida (comet@aerith.net). All rights reserved.